Tracking 19176 objects as of 26-May-2018
HD Live streaming from Space Station
objects crossing your sky now

FENGYUN 1C DEB

Track FENGYUN 1C DEB now!
10-day predictions


NORAD ID: 29985
Int'l Code: 1999-025LK
Perigee: 845.4 km
Apogee: 888.6 km
Inclination: 99.0 °
Period: 102.1 minutes
Semi major axis: 7237 km
RCS: 0.129 m2 (medium)
Launch date: May 10, 1999
Source: People's Republic of China (PRC)
Launch site: Taiyaun Space Center, China (TSC)

Note: This is SATELLITE DEBRIS
aabbcc
Your satellite tracking list
Your tracking list is empty




NASA's NSSDC Master Catalog

Two Line Element Set (TLE):
1 29985U 99025LK  18145.59764507 +.00000055 +00000-0 +56208-4 0  9995
2 29985 098.9860 171.1824 0029874 076.7032 035.0031 14.09857343584805
Source of the keplerian elements: AFSPC